Hourly Weather Roundup
Issued by NWS Central Illinois

Home | Current Version | Previous Version | Text Only | Print | Product List | Glossary On
Versions: 1 2 3 4 5 6 7 8 9 10 11 12 13 14 15 16 17 18 19 20 21 22 23 24 25 26 27 28 29 30 31 32 33 34 35 36 37 38 39 40 41 42 43 44 45 46 47 48 49 50
000
NZUS43 KILX 221010
HWRILX

AREA WEATHER ROUNDUP
NATIONAL WEATHER SERVICE, LINCOLN IL
400 AM CST SAT NOV 22 2014


CITY           SKY/WX    TMP DP  RH WIND       PRES   REMARKS
BLOOMINGTON    CLOUDY    37  34  89 S14       30.11F WCI  28
CHAMPAIGN      CLOUDY    37  31  78 S13       30.15F WCI  29
DECATUR        CLOUDY    39  31  72 S13       30.14F WCI  31
FLORA          CLEAR     40  31  70 S8        30.20F WCI  34
GALESBURG      CLOUDY    39  35  85 S9        30.04F WCI  32
JACKSONVILLE   CLOUDY    42  38  86 S12G17    30.10F
LACON          CLOUDY    38  34  87 S10       30.06F FOG     WCI  31
LAWRENCEVILLE  CLOUDY    39  32  76 S10       30.23F WCI  32
LITCHFIELD     CLOUDY    38  31  78 S12       30.14F WCI  30
$$


CITY           SKY/WX    TMP DP  RH WIND       PRES   REMARKS
LINCOLN        CLOUDY    40  34  81 S8        30.13F WCI  34
MACOMB         CLOUDY    40  37  88 S8        30.08F WCI  34
MATTOON        CLOUDY    39  28  64 S10       30.16F WCI  32
MT CARMEL AP   CLOUDY    43  30  61 S7        30.22F
OLNEY-NOBLE AP CLOUDY    41  30  65 S9        30.21F
PARIS          CLOUDY    38  30  73 S14       30.18F WCI  29
PEORIA         CLOUDY    40  35  83 S12       30.09F HAZE    WCI  33
PONTIAC        CLOUDY    38  35  92 S13       30.11F WCI  30
RANTOUL        CLOUDY    38  32  80 S13       30.13F WCI  30
ROBINSON       CLOUDY    41  31  67 S8        30.22F
SPRINGFIELD    CLOUDY    39  34  82 S10       30.12F WCI  32
TAYLORVILLE    CLOUDY    37  32  81 S9        30.13F WCI  31
$$

...REGIONAL REPORTS...


CITY           SKY/WX    TMP DP  RH WIND       PRES   REMARKS
CHICAGO O`HARE RAIN      33  31  92 SW13      30.07F FOG     WCI  24
KANKAKEE       DRIZZLE   34  32  94 S7        30.13F WCI  27
MOLINE         CLOUDY    37  34  89 S5        30.03F WCI  33
MOUNT VERNON   CLOUDY    46  36  66 S10       30.20F
PITTSFIELD     CLOUDY    43  40  89 S7        30.10F
QUINCY         CLOUDY    44  40  85 S12       30.06F
ROCKFORD       CLOUDY    33  31  92 S10       30.06F FOG     WCI  25
$$


CITY           SKY/WX    TMP DP  RH WIND       PRES   REMARKS
BURLINGTON     CLOUDY    40  35  83 S13       30.03F WCI  32
CEDAR RAPIDS   CLOUDY    33  33 100 S9        29.98F FOG     WCI  25
DES MOINES     CLOUDY    39  36  89 S9        29.95F FOG     WCI  33
KIRKSVILLE     CLOUDY    47  45  93 S9        30.02F FOG
OTTUMWA        CLOUDY    39  36  89 S10       29.98F WCI  32
ST LOUIS       MOCLDY    45  37  73 S6        30.14F
$$


CITY           SKY/WX    TMP DP  RH WIND       PRES   REMARKS
TERRE HAUTE    CLOUDY    40  30  67 S8        30.21F WCI  34
EVANSVILLE     CLOUDY    43  30  60 S3        30.26F
INDIANAPOLIS   CLOUDY    34  29  82 SE8       30.21F WCI  27
LAFAYETTE      CLOUDY    36  31  82 S8        30.17F WCI  30
MADISON        CLOUDY    32  29  88 S12       29.99F WCI  23
MILWAUKEE      CLOUDY    33  28  81 SW18      30.00F WCI  22
$$




USA.gov is the U.S. government's official web portal to all federal, state and local government web resources and services.